, AK

(GMT )
Northway

Weather History for PAOR - November, 2012

Change the Weather History Date:

Thursday, November 15, 2012

  Actual Average Record
Temperature  
Mean Temperature -2 °F -  
Max Temperature 3 °F 4 °F 59 °F (1998)
Min Temperature -8 °F -10 °F -42 °F (1966)
Degree Days  
Heating Degree Days 68    
Moisture  
Dew Point -6 °F    
Average Humidity 83    
Maximum Humidity 92    
Minimum Humidity 78    
Precipitation  
Precipitation 0.03 in - - ()
Snow  
Snow 0.00 in - - ()
Snow Depth 14.00 in    
Sea Level Pressure  
Sea Level Pressure 29.92 in    
Wind  
Wind Speed 0 mph (North)    
Max Wind Speed 0 mph    
Max Gust Speed -    
Visibility 7 miles    
Events Snow    
Averages and records for this station are not official NWS values.
T = Trace of Precipitation, MM = Missing Value Source: NWS Daily Summary

Daily Weather History Graph

Daily Weather History Graph

Search for Another Location

Airport or City:

Trip Planner

Search our weather history database for the weather conditions in past years. The results will help you decide how hot, cold, wet, or windy it might be!

Date:

Astronomy

Nov. 15, 2012 Rise Set
Actual Time 8:48 AM AKST 3:35 PM AKST
Civil Twilight 7:51 AM AKST 4:32 PM AKST
Nautical Twilight 6:53 AM AKST 5:30 PM AKST
Astronomical Twilight 5:59 AM AKST 6:24 PM AKST
Moon 11:24 AM AKST (11/15) 5:06 PM AKST (11/15)
Length of Visible Light 8h 40m
Length of Day
6h 46m
Waxing Crescent, 6% of the Moon is Illuminated
Nov 15
Waxing Crescent
Nov 20
First Quarter
Nov 28
Full
Dec 6
Last Quarter
Dec 12
New

Hourly Weather History & Observations

Time (AKST) Temp. Dew Point Humidity Pressure Visibility Wind Dir Wind Speed Gust Speed Precip Events Conditions
12:53 AM 3.9 °F -0.0 °F 84% 29.77 in 1.0 mi Calm Calm - 0.02 in Snow Light Snow
1:23 AM 3.2 °F -0.4 °F 85% 29.60 in 2.0 mi Calm Calm - 0.00 in Snow Light Snow
1:53 AM 3.9 °F -0.0 °F 84% 29.78 in 1.8 mi Calm Calm - 0.01 in Snow Light Snow
3:41 AM 1.4 °F -0.4 °F 92% 29.64 in 7.0 mi Calm Calm - 0.00 in Snow Light Snow
3:53 AM 1.9 °F -2.0 °F 83% 29.82 in 8.0 mi Calm Calm - 0.00 in Snow Light Snow
4:53 AM -2.0 °F -6.0 °F 83% 29.85 in 9.0 mi Calm Calm - 0.00 in Snow Light Snow
5:53 AM -8.0 °F -11.0 °F 86% 29.88 in 10.0 mi Calm Calm - 0.00 in   Scattered Clouds
6:53 AM -8.0 °F -11.9 °F 83% 29.90 in 10.0 mi Calm Calm - N/A   Scattered Clouds
7:53 AM -7.1 °F -11.9 °F 79% 29.91 in 10.0 mi Calm Calm - N/A   Mostly Cloudy
8:53 AM -7.1 °F -11.0 °F 83% 29.93 in 10.0 mi Calm Calm - N/A   Mostly Cloudy
9:53 AM -5.1 °F -9.0 °F 83% 29.94 in 10.0 mi Calm Calm - N/A   Mostly Cloudy
10:53 AM -0.9 °F -5.1 °F 83% 29.94 in 10.0 mi Calm Calm - N/A   Mostly Cloudy
11:53 AM -0.0 °F -2.9 °F 88% 29.95 in 10.0 mi Calm Calm - N/A   Mostly Cloudy
12:53 PM -0.9 °F -5.1 °F 83% 29.96 in 10.0 mi Calm Calm - N/A   Mostly Cloudy
1:53 PM -0.0 °F -5.1 °F 79% 29.96 in 10.0 mi Calm Calm - N/A   Mostly Cloudy
2:53 PM -0.0 °F -4.0 °F 83% 29.96 in 10.0 mi Calm Calm - 0.00 in Snow Light Snow
3:53 PM -2.9 °F -6.0 °F 87% 29.97 in 8.0 mi Calm Calm - 0.00 in Snow Light Snow
4:53 PM -4.0 °F -8.0 °F 83% 29.99 in 9.0 mi Calm Calm - 0.00 in Snow Light Snow
5:53 PM -6.0 °F -11.0 °F 79% 30.01 in 9.0 mi Calm Calm - 0.00 in Snow Light Snow
6:53 PM -5.1 °F -9.9 °F 80% 30.03 in 9.0 mi Calm Calm - 0.00 in Snow Light Snow
7:53 PM -2.0 °F -7.1 °F 79% 30.03 in 9.0 mi Calm Calm - 0.00 in Snow Light Snow
8:53 PM -2.0 °F -6.0 °F 83% 30.04 in 2.5 mi Calm Calm - 0.00 in Snow Light Snow
9:53 PM -0.9 °F -6.0 °F 79% 30.05 in 2.5 mi Calm Calm - 0.00 in Snow Light Snow
10:49 PM -0.4 °F -5.8 °F 78% 29.85 in 4.0 mi Calm Calm - 0.00 in Snow Light Snow
10:53 PM -0.0 °F -5.1 °F 79% 30.05 in 4.0 mi Calm Calm - 0.00 in Snow Light Snow
11:53 PM -0.0 °F -4.0 °F 83% 30.06 in 5.0 mi Calm Calm - 0.00 in Snow Light Snow